Flag for Iran Weather past 2 weeks in Rafsanjan, Iran

Now
79 °F

Sunny.


Feels Like: 77 °F
Forecast: 56 / 78 °F
Wind: 5 mph from Southwest

Location: Kerman Airport

Current Time: Apr 25, 2015 at 9:24:11 AM

Latest Report: Apr 25, 2015 at 9:00 AM


Visibility: 10 mi

Pressure: 30.21 "Hg

Humidity: 12%

Dew point: 23 °F

Location of RafsanjanLocation

Historic Weather in Rafsanjan — Graph

°F

Rafsanjan temperature yesterday

Maximum temperature yesterday: 90 °F (at 3:00 PM)
Minimum temperature yesterday: 54 °F (at 6:30 AM)
Average temperature yesterday: 76 °F

Past Weeks' High & Low Weather Summary

 TemperatureHumidityPressure
High90 °F (Apr 24, 3:00 PM)72% (Apr 19, 7:30 AM)30.36 "Hg (Apr 19, 7:30 AM)
Low45 °F (Apr 20, 4:30 AM)2% (Apr 22, 1:30 PM)29.95 "Hg (Apr 18, 5:30 PM)
Average71 °F22%30.16 "Hg
* Reported Apr 10 7:30 AM — Apr 25 7:30 AM, Rafsanjan, Weather by CustomWeather, © 2015

Note: Actual official high and low records may vary slightly from our data, if they occured in-between our weather recording intervals... More about our weather records

Advertising

Rafsanjan weather history for previous 24 hours

 ConditionsComfort  
Time TempWeatherWind HumidityBarometerVisibility
7:30 AM
Sat, Apr 25
66 °FPassing clouds.7 mph26%30.21 "Hg5 mi
6:30 AM64 °FPassing clouds.7 mph22%30.18 "Hg5 mi
5:30 AM64 °FClear.9 mph22%30.15 "Hg10 mi
4:30 AM66 °FClear.12 mph21%30.15 "Hg10 mi
3:30 AM68 °FClear.9 mph21%30.15 "Hg10 mi
2:30 AM70 °FClear.7 mph18%30.15 "Hg10 mi
1:30 AM72 °FClear.5 mph16%30.15 "Hg10 mi
12:30 AM72 °FClear.7 mph16%30.15 "Hg10 mi
11:30 PM
Fri, Apr 24
72 °FPassing clouds.7 mph16%30.15 "HgN/A
10:30 PM73 °FPassing clouds.7 mph14%30.15 "HgN/A
9:30 PM77 °FPassing clouds.12 mph11%30.12 "HgN/A
8:30 PM81 °FPassing clouds.16 mph9%30.12 "HgN/A
7:30 PM84 °FScattered clouds.18 mph7%30.09 "HgN/A
6:30 PM86 °FScattered clouds.16 mph7%30.09 "HgN/A
5:30 PM88 °FScattered clouds.18 mph7%30.09 "Hg5 mi
4:30 PM90 °FScattered clouds.14 mph9%30.09 "Hg5 mi
4:00 PM88 °FPassing clouds.7 mph11%30.12 "Hg5 mi
3:30 PM88 °FPassing clouds.12 mph11%30.12 "Hg5 mi
3:00 PM90 °FPassing clouds.14 mph10%30.15 "Hg5 mi
2:30 PM88 °FPassing clouds.7 mph11%30.15 "Hg5 mi
1:30 PM86 °FClear.16 mph11%30.18 "Hg5 mi
1:00 PM86 °FClear.9 mph12%30.21 "Hg5 mi
12:30 PM84 °FSunny.7 mph12%30.21 "Hg5 mi
12:00 PM84 °FClear.7 mph13%30.24 "Hg5 mi
11:30 AM82 °FClear.7 mph14%30.24 "Hg5 mi
11:00 AM84 °FClear.5 mph14%30.27 "Hg4 mi
10:30 AM81 °FClear.5 mph17%30.27 "Hg4 mi
9:30 AM77 °FSunny.5 mph18%30.27 "Hg4 mi
Weather by CustomWeather, © 2015

See weather overviewHow to use our weather pages